| time (UTC) | temp C | wind direction | speed KPH | gust KPH | rain 1hr cm | rain 24hr cm | rain mn cm | humidity % | barometer mb |
| 20260505112026 | 10 | 66 | 6.4 | 14.5 | 0.00 | 0.00 | 0.00 | 55 | 1009.1 |
| 20260505111520 | 10 | 56 | 9.7 | 24.1 | 0.00 | 0.00 | 0.00 | 54 | 1009.2 |
| 20260505111017 | 10 | 57 | 8.0 | 27.4 | 0.00 | 0.00 | 0.00 | 53 | 1009.2 |
| 20260505110514 | 10 | 74 | 6.4 | 22.5 | 0.00 | 0.00 | 0.00 | 53 | 1009.0 |
| 20260505101945 | 11 | 31 | 8.0 | 14.5 | 0.00 | 0.00 | 0.00 | 50 | 1008.3 |
| 20260505101438 | 11 | 43 | 4.8 | 24.1 | 0.00 | 0.00 | 0.00 | 51 | 1008.2 |
| 20260505100934 | 11 | 113 | 6.4 | 16.1 | 0.00 | 0.00 | 0.00 | 51 | 1008.0 |
| 20260505100432 | 11 | 106 | 9.7 | 22.5 | 0.00 | 0.00 | 0.00 | 51 | 1007.8 |
| 20260505095927 | 11 | 106 | 11.3 | 32.2 | 0.00 | 0.00 | 0.00 | 51 | 1008.1 |
| 20260505095425 | 11 | 32 | 4.8 | 14.5 | 0.00 | 0.00 | 0.00 | 51 | 1008.0 |
| 20260505094920 | 11 | 40 | 9.7 | 24.1 | 0.00 | 0.00 | 0.00 | 51 | 1008.0 |
| 20260505094418 | 11 | 53 | 9.7 | 20.9 | 0.00 | 0.00 | 0.00 | 52 | 1008.0 |
| 20260505093914 | 11 | 69 | 3.2 | 11.3 | 0.00 | 0.00 | 0.00 | 52 | 1007.9 |
| 20260505093411 | 11 | 38 | 6.4 | 17.7 | 0.00 | 0.00 | 0.00 | 53 | 1007.6 |
| 20260505092908 | 11 | 35 | 11.3 | 22.5 | 0.00 | 0.00 | 0.00 | 52 | 1007.4 |
| 20260505092406 | 11 | 75 | 4.8 | 14.5 | 0.00 | 0.00 | 0.00 | 52 | 1007.3 |
| 20260505091903 | 11 | 39 | 11.3 | 20.9 | 0.00 | 0.00 | 0.00 | 52 | 1007.0 |
| 20260505091401 | 11 | 70 | 14.5 | 22.5 | 0.00 | 0.00 | 0.00 | 51 | 1007.2 |
| 20260505090858 | 11 | 49 | 11.3 | 17.7 | 0.00 | 0.00 | 0.00 | 51 | 1007.0 |
| 20260505090356 | 11 | 38 | 12.9 | 25.7 | 0.00 | 0.00 | 0.00 | 51 | 1007.0 |
| 20260505085853 | 12 | 48 | 14.5 | 27.4 | 0.00 | 0.00 | 0.00 | 50 | 1006.9 |
| 20260505085351 | 12 | 86 | 16.1 | 25.7 | 0.00 | 0.00 | 0.00 | 50 | 1006.8 |
| 20260505084849 | 12 | 56 | 6.4 | 12.9 | 0.00 | 0.00 | 0.00 | 50 | 1006.8 |
| 20260505084347 | 12 | 85 | 6.4 | 27.4 | 0.00 | 0.00 | 0.00 | 50 | 1007.1 |
| 20260505083845 | 12 | 128 | 6.4 | 17.7 | 0.00 | 0.00 | 0.00 | 50 | 1006.9 |
| 20260505083342 | 12 | 35 | 11.3 | 20.9 | 0.00 | 0.00 | 0.00 | 50 | 1006.5 |
| 20260505082838 | 12 | 29 | 4.8 | 27.4 | 0.00 | 0.00 | 0.00 | 50 | 1006.5 |
| 20260505082334 | 12 | 129 | 4.8 | 22.5 | 0.00 | 0.00 | 0.00 | 49 | 1006.4 |
| 20260505081831 | 12 | 32 | 4.8 | 17.7 | 0.00 | 0.00 | 0.00 | 49 | 1006.1 |
| 20260505081328 | 12 | 58 | 14.5 | 33.8 | 0.00 | 0.00 | 0.00 | 49 | 1006.0 |
| 20260505080825 | 12 | 112 | 11.3 | 25.7 | 0.00 | 0.00 | 0.00 | 49 | 1005.9 |
| 20260505080320 | 12 | 29 | 22.5 | 33.8 | 0.00 | 0.00 | 0.00 | 48 | 1005.9 |
| 20260505075816 | 12 | 126 | 8.0 | 22.5 | 0.00 | 0.00 | 0.00 | 48 | 1006.1 |
| 20260505075313 | 13 | 45 | 6.4 | 17.7 | 0.00 | 0.00 | 0.00 | 48 | 1006.0 |
| 20260505074810 | 13 | 61 | 6.4 | 25.7 | 0.00 | 0.00 | 0.00 | 47 | 1005.9 |
| 20260505074308 | 13 | 57 | 12.9 | 24.1 | 0.00 | 0.00 | 0.00 | 47 | 1006.0 |
| 20260505073805 | 13 | 26 | 17.7 | 32.2 | 0.00 | 0.00 | 0.00 | 46 | 1005.9 |
| 20260505073303 | 13 | 89 | 4.8 | 22.5 | 0.00 | 0.00 | 0.00 | 47 | 1005.8 |
| 20260505072800 | 13 | 44 | 16.1 | 24.1 | 0.00 | 0.00 | 0.00 | 47 | 1006.0 |
| 20260505072255 | 13 | 18 | 9.7 | 17.7 | 0.00 | 0.00 | 0.00 | 47 | 1006.1 |
| 20260505071751 | 13 | 57 | 8.0 | 17.7 | 0.00 | 0.00 | 0.00 | 47 | 1006.0 |
| 20260505071248 | 13 | 155 | 9.7 | 20.9 | 0.00 | 0.00 | 0.00 | 47 | 1006.0 |
| 20260505070746 | 13 | 61 | 8.0 | 25.7 | 0.00 | 0.00 | 0.00 | 48 | 1005.9 |
| 20260505070242 | 13 | 87 | 12.9 | 27.4 | 0.00 | 0.00 | 0.00 | 49 | 1005.9 |
| 20260505065738 | 13 | 300 | 6.4 | 16.1 | 0.00 | 0.00 | 0.00 | 50 | 1005.9 |
| 20260505065235 | 13 | 47 | 4.8 | 11.3 | 0.00 | 0.00 | 0.00 | 49 | 1005.7 |
| 20260505064732 | 14 | 73 | 3.2 | 14.5 | 0.00 | 0.00 | 0.00 | 48 | 1005.3 |
| 20260505064229 | 15 | 48 | 1.6 | 11.3 | 0.00 | 0.00 | 0.00 | 46 | 1005.3 |
| 20260505063727 | 15 | 51 | 4.8 | 14.5 | 0.00 | 0.00 | 0.00 | 44 | 1005.2 |
| 20260505063223 | 16 | 52 | 8.0 | 14.5 | 0.00 | 0.00 | 0.00 | 44 | 1005.5 |
| 20260505062719 | 16 | 50 | 3.2 | 17.7 | 0.00 | 0.00 | 0.00 | 43 | 1005.5 |
| 20260505062217 | 16 | 59 | 11.3 | 24.1 | 0.00 | 0.00 | 0.00 | 44 | 1005.5 |
| 20260505061714 | 16 | 36 | 14.5 | 17.7 | 0.00 | 0.00 | 0.00 | 43 | 1005.4 |
| 20260505061212 | 16 | 58 | 1.6 | 8.0 | 0.00 | 0.00 | 0.00 | 43 | 1005.1 |
| 20260505060709 | 16 | 36 | 12.9 | 22.5 | 0.00 | 0.00 | 0.00 | 42 | 1005.0 |
| 20260505060206 | 16 | 56 | 9.7 | 16.1 | 0.00 | 0.00 | 0.00 | 43 | 1005.0 |
| 20260505055701 | 16 | 47 | 9.7 | 24.1 | 0.00 | 0.00 | 0.00 | 43 | 1004.5 |
| 20260505055158 | 16 | 77 | 4.8 | 16.1 | 0.00 | 0.00 | 0.00 | 43 | 1004.7 |
| 20260505054655 | 16 | 39 | 6.4 | 20.9 | 0.00 | 0.00 | 0.00 | 43 | 1004.4 |
| 20260505054153 | 16 | 60 | 8.0 | 12.9 | 0.00 | 0.00 | 0.00 | 44 | 1004.3 |
| 20260505053650 | 16 | 50 | 9.7 | 27.4 | 0.00 | 0.00 | 0.00 | 46 | 1004.3 |
| 20260505053147 | 16 | 75 | 4.8 | 12.9 | 0.00 | 0.00 | 0.00 | 48 | 1004.2 |
| 20260505052644 | 16 | 137 | 1.6 | 9.7 | 0.00 | 0.00 | 0.00 | 50 | 1004.3 |
| 20260505052141 | 16 | 59 | 6.4 | 16.1 | 0.00 | 0.00 | 0.00 | 50 | 1004.1 |
| 20260505051637 | 17 | 130 | 4.8 | 17.7 | 0.00 | 0.00 | 0.00 | 49 | 1004.0 |
| 20260505051136 | 17 | 40 | 6.4 | 16.1 | 0.00 | 0.00 | 0.00 | 50 | 1003.7 |
| 20260505050633 | 17 | 101 | 4.8 | 14.5 | 0.00 | 0.00 | 0.00 | 50 | 1004.0 |
| 20260505050132 | 17 | 82 | 11.3 | 17.7 | 0.00 | 0.00 | 0.00 | 50 | 1003.7 |
| 20260505041601 | 18 | 131 | 3.2 | 16.1 | 0.00 | 0.00 | 0.00 | 54 | 1003.1 |
| 20260505041059 | 18 | 43 | 8.0 | 14.5 | 0.00 | 0.00 | 0.00 | 53 | 1002.9 |
| 20260505040556 | 18 | 50 | 9.7 | 17.7 | 0.00 | 0.00 | 0.00 | 53 | 1003.1 |
| 20260505040053 | 18 | 61 | 8.0 | 16.1 | 0.00 | 0.00 | 0.00 | 52 | 1002.7 |
| 20260505035549 | 18 | 52 | 8.0 | 24.1 | 0.00 | 0.00 | 0.00 | 51 | 1002.8 |
| 20260505035046 | 19 | 67 | 6.4 | 14.5 | 0.00 | 0.00 | 0.00 | 52 | 1002.8 |
| 20260505034542 | 18 | 46 | 11.3 | 16.1 | 0.00 | 0.00 | 0.00 | 54 | 1003.0 |
| 20260505034039 | 18 | 105 | 1.6 | 14.5 | 0.00 | 0.00 | 0.00 | 59 | 1002.8 |
| 20260505033536 | 18 | 91 | 3.2 | 12.9 | 0.00 | 0.00 | 0.00 | 61 | 1003.0 |
| 20260505033035 | 18 | 102 | 1.6 | 3.2 | 0.00 | 0.00 | 0.00 | 62 | 1002.9 |
| 20260505032532 | 18 | 95 | 0.0 | 8.0 | 0.00 | 0.00 | 0.00 | 62 | 1002.5 |
| 20260505032028 | 19 | 96 | 4.8 | 9.7 | 0.00 | 0.00 | 0.00 | 61 | 1002.4 |
| 20260505031526 | 18 | 70 | 4.8 | 4.8 | 0.00 | 0.00 | 0.00 | 60 | 1002.6 |
| 20260505031022 | 19 | 124 | 0.0 | 0.0 | 0.00 | 0.00 | 0.00 | 59 | 1002.5 |
| 20260505030519 | 19 | 130 | 0.0 | 1.6 | 0.00 | 0.00 | 0.00 | 58 | 1002.3 |
| 20260505030015 | 19 | 114 | 1.6 | 4.8 | 0.00 | 0.00 | 0.00 | 56 | 1002.2 |
| 20260505025511 | 20 | 97 | 3.2 | 8.0 | 0.00 | 0.00 | 0.00 | 54 | 1001.8 |
| 20260505025010 | 20 | 95 | 0.0 | 4.8 | 0.00 | 0.00 | 0.00 | 53 | 1002.1 |
| 20260505024506 | 20 | 110 | 1.6 | 1.6 | 0.00 | 0.00 | 0.00 | 53 | 1002.0 |
| 20260505024003 | 20 | 121 | 0.0 | 1.6 | 0.00 | 0.00 | 0.00 | 53 | 1001.9 |
| 20260505023500 | 20 | 124 | 0.0 | 0.0 | 0.00 | 0.00 | 0.00 | 53 | 1001.6 |
| 20260505022958 | 20 | 116 | 0.0 | 3.2 | 0.00 | 0.00 | 0.00 | 53 | 1001.4 |
| 20260505022455 | 20 | 86 | 1.6 | 4.8 | 0.00 | 0.00 | 0.00 | 53 | 1001.3 |
| 20260505021952 | 20 | 94 | 6.4 | 8.0 | 0.00 | 0.00 | 0.00 | 52 | 1001.1 |
| 20260505021449 | 20 | 123 | 0.0 | 0.0 | 0.00 | 0.00 | 0.00 | 51 | 1001.6 |
| 20260505020944 | 20 | 119 | 0.0 | 0.0 | 0.00 | 0.00 | 0.00 | 50 | 1001.4 |
| 20260505020440 | 21 | 110 | 0.0 | 1.6 | 0.00 | 0.00 | 0.00 | 48 | 1001.3 |
| 20260505015937 | 21 | 103 | 1.6 | 3.2 | 0.00 | 0.00 | 0.00 | 47 | 1001.3 |
| 20260505015434 | 21 | 103 | 0.0 | 3.2 | 0.00 | 0.00 | 0.00 | 46 | 1001.1 |
| 20260505014931 | 21 | 103 | 1.6 | 3.2 | 0.00 | 0.00 | 0.00 | 46 | 1001.1 |
| 20260505014428 | 21 | 94 | 4.8 | 8.0 | 0.00 | 0.00 | 0.00 | 46 | 1001.2 |
| 20260505013925 | 21 | 92 | 1.6 | 4.8 | 0.00 | 0.00 | 0.00 | 47 | 1000.9 |
| 20260505013422 | 21 | 114 | 0.0 | 0.0 | 0.00 | 0.00 | 0.00 | 47 | 1001.0 |
| 20260505012920 | 22 | 112 | 0.0 | 1.6 | 0.00 | 0.00 | 0.00 | 45 | 1001.1 |
| 20260505012418 | 22 | 112 | 0.0 | 0.0 | 0.00 | 0.00 | 0.00 | 44 | 1001.1 |
| 20260505011914 | 22 | 112 | 0.0 | 0.0 | 0.00 | 0.00 | 0.00 | 44 | 1001.0 |
| 20260505011411 | 23 | 102 | 0.0 | 3.2 | 0.00 | 0.00 | 0.00 | 43 | 1001.1 |
| 20260505010907 | 23 | 157 | 1.6 | 1.6 | 0.00 | 0.00 | 0.00 | 41 | 1001.0 |
| 20260505010403 | 23 | 180 | 0.0 | 0.0 | 0.00 | 0.00 | 0.00 | 41 | 1001.2 |
| 20260505005859 | 23 | 179 | 1.6 | 3.2 | 0.00 | 0.00 | 0.00 | 41 | 1001.6 |
| 20260505005356 | 23 | 213 | 1.6 | 9.7 | 0.00 | 0.00 | 0.00 | 40 | 1001.4 |
| 20260505004854 | 24 | 197 | 1.6 | 4.8 | 0.00 | 0.00 | 0.00 | 39 | 1001.4 |
| 20260505004349 | 25 | 154 | 0.0 | 12.9 | 0.00 | 0.00 | 0.00 | 38 | 1001.1 |
| 20260505003847 | 25 | 186 | 3.2 | 3.2 | 0.00 | 0.00 | 0.00 | 36 | 1001.2 |
| 20260505003344 | 25 | 113 | 3.2 | 3.2 | 0.00 | 0.00 | 0.00 | 34 | 1000.9 |
| 20260505002840 | 26 | 181 | 0.0 | 1.6 | 0.00 | 0.00 | 0.00 | 35 | 1000.9 |
| 20260505002337 | 26 | 267 | 14.5 | 16.1 | 0.00 | 0.00 | 0.00 | 34 | 1000.9 |
| 20260505001836 | 26 | 2 | 1.6 | 1.6 | 0.00 | 0.00 | 0.00 | 32 | 1001.1 |
| 20260505001332 | 26 | 335 | 1.6 | 3.2 | 0.00 | 0.00 | 0.00 | 31 | 1000.9 |
| 20260505000829 | 26 | 287 | 8.0 | 9.7 | 0.00 | 0.00 | 0.00 | 30 | 1001.1 |
| 20260505000327 | 26 | 298 | 3.2 | 4.8 | 0.00 | 0.00 | 0.00 | 30 | 1001.0 |
| 20260504235824 | 26 | 176 | 0.0 | 1.6 | 0.00 | 0.00 | 0.00 | 31 | 1000.8 |
| 20260504235321 | 26 | 180 | 0.0 | 1.6 | 0.00 | 0.00 | 0.00 | 31 | 1001.0 |
| 20260504234817 | 26 | 161 | 0.0 | 3.2 | 0.00 | 0.00 | 0.00 | 32 | 1000.7 |
| 20260504234315 | 27 | 164 | 1.6 | 3.2 | 0.00 | 0.00 | 0.00 | 31 | 1000.8 |
| 20260504233811 | 27 | 210 | 3.2 | 3.2 | 0.00 | 0.00 | 0.00 | 31 | 1000.6 |
| 20260504233307 | 27 | 185 | 1.6 | 4.8 | 0.00 | 0.00 | 0.00 | 30 | 1000.7 |
| 20260504232804 | 28 | 145 | 3.2 | 11.3 | 0.00 | 0.00 | 0.00 | 28 | 1000.4 |
| 20260504232303 | 28 | 135 | 3.2 | 4.8 | 0.00 | 0.00 | 0.00 | 25 | 1000.3 |
| 20260504231758 | 28 | 119 | 3.2 | 9.7 | 0.00 | 0.00 | 0.00 | 24 | 1000.4 |
| 20260504231254 | 28 | 122 | 4.8 | 9.7 | 0.00 | 0.00 | 0.00 | 25 | 1000.2 |
| 20260504230750 | 28 | 103 | 1.6 | 4.8 | 0.00 | 0.00 | 0.00 | 24 | 1000.5 |
| 20260504230249 | 28 | 188 | 3.2 | 8.0 | 0.00 | 0.00 | 0.00 | 25 | 1000.2 |
| 20260504225747 | 29 | 112 | 4.8 | 4.8 | 0.00 | 0.00 | 0.00 | 24 | 1000.3 |
| 20260504225243 | 30 | 143 | 4.8 | 12.9 | 0.00 | 0.00 | 0.00 | 25 | 1000.6 |
| 20260504224740 | 30 | 136 | 1.6 | 3.2 | 0.00 | 0.00 | 0.00 | 25 | 1000.6 |
| 20260504224237 | 30 | 134 | 0.0 | 0.0 | 0.00 | 0.00 | 0.00 | 23 | 1000.4 |
| 20260504223734 | 30 | 93 | 11.3 | 14.5 | 0.00 | 0.00 | 0.00 | 23 | 1000.2 |
| 20260504223229 | 30 | 106 | 4.8 | 11.3 | 0.00 | 0.00 | 0.00 | 24 | 1000.4 |
| 20260504222727 | 30 | 118 | 0.0 | 0.0 | 0.00 | 0.00 | 0.00 | 24 | 1000.6 |
| 20260504222223 | 30 | 125 | 0.0 | 11.3 | 0.00 | 0.00 | 0.00 | 22 | 1000.6 |
| 20260504221721 | 30 | 107 | 4.8 | 14.5 | 0.00 | 0.00 | 0.00 | 22 | 1000.4 |
| 20260504221218 | 30 | 80 | 9.7 | 11.3 | 0.00 | 0.00 | 0.00 | 20 | 1000.6 |
| 20260504220714 | 30 | 99 | 0.0 | 14.5 | 0.00 | 0.00 | 0.00 | 20 | 1000.3 |
| 20260504220212 | 31 | 122 | 1.6 | 8.0 | 0.00 | 0.00 | 0.00 | 17 | 1000.5 |
| 20260504215709 | 31 | 135 | 0.0 | 1.6 | 0.00 | 0.00 | 0.00 | 20 | 1000.5 |
| 20260504215206 | 30 | 100 | 6.4 | 16.1 | 0.00 | 0.00 | 0.00 | 18 | 1000.5 |
| 20260504214701 | 30 | 114 | 0.0 | 8.0 | 0.00 | 0.00 | 0.00 | 19 | 1000.4 |
| 20260504214158 | 30 | 90 | 3.2 | 14.5 | 0.00 | 0.00 | 0.00 | 18 | 1000.7 |
| 20260504213655 | 30 | 95 | 1.6 | 12.9 | 0.00 | 0.00 | 0.00 | 18 | 1000.4 |
| 20260504213151 | 30 | 103 | 1.6 | 9.7 | 0.00 | 0.00 | 0.00 | 19 | 1000.9 |
| 20260504212648 | 30 | 154 | 0.0 | 9.7 | 0.00 | 0.00 | 0.00 | 19 | 1000.8 |
| 20260504212144 | 30 | 138 | 0.0 | 0.0 | 0.00 | 0.00 | 0.00 | 19 | 1000.8 |
| 20260504211642 | 31 | 154 | 6.4 | 9.7 | 0.00 | 0.00 | 0.00 | 20 | 1001.0 |
| 20260504211138 | 30 | 103 | 4.8 | 4.8 | 0.00 | 0.00 | 0.00 | 21 | 1001.2 |
| 20260504210636 | 30 | 89 | 12.9 | 16.1 | 0.00 | 0.00 | 0.00 | 20 | 1001.0 |
| 20260504210132 | 30 | 75 | 1.6 | 12.9 | 0.00 | 0.00 | 0.00 | 20 | 1001.2 |
| 20260504205630 | 30 | 71 | 1.6 | 8.0 | 0.00 | 0.00 | 0.00 | 19 | 1001.2 |
| 20260504205127 | 30 | 88 | 6.4 | 9.7 | 0.00 | 0.00 | 0.00 | 19 | 1001.2 |
| 20260504204626 | 30 | 82 | 3.2 | 9.7 | 0.00 | 0.00 | 0.00 | 21 | 1001.4 |
| 20260504204124 | 30 | 146 | 3.2 | 12.9 | 0.00 | 0.00 | 0.00 | 19 | 1001.4 |
| 20260504203622 | 30 | 59 | 4.8 | 11.3 | 0.00 | 0.00 | 0.00 | 18 | 1001.6 |
| 20260504203120 | 30 | 90 | 4.8 | 11.3 | 0.00 | 0.00 | 0.00 | 19 | 1001.7 |
| 20260504202614 | 30 | 84 | 11.3 | 17.7 | 0.00 | 0.00 | 0.00 | 21 | 1001.8 |
| 20260504202111 | 31 | 99 | 9.7 | 17.7 | 0.00 | 0.00 | 0.00 | 19 | 1002.0 |
| 20260504201608 | 30 | 195 | 3.2 | 3.2 | 0.00 | 0.00 | 0.00 | 20 | 1002.0 |
| 20260504201106 | 30 | 80 | 8.0 | 16.1 | 0.00 | 0.00 | 0.00 | 19 | 1002.1 |
| 20260504200603 | 30 | 152 | 3.2 | 4.8 | 0.00 | 0.00 | 0.00 | 20 | 1002.1 |
| 20260504200059 | 30 | 143 | 4.8 | 14.5 | 0.00 | 0.00 | 0.00 | 19 | 1002.3 |
| 20260504195555 | 30 | 85 | 9.7 | 11.3 | 0.00 | 0.00 | 0.00 | 19 | 1002.1 |
| 20260504195052 | 30 | 75 | 9.7 | 14.5 | 0.00 | 0.00 | 0.00 | 20 | 1002.4 |
| 20260504194549 | 30 | 130 | 3.2 | 14.5 | 0.00 | 0.00 | 0.00 | 20 | 1002.4 |
| 20260504194044 | 30 | 116 | 8.0 | 17.7 | 0.00 | 0.00 | 0.00 | 20 | 1002.2 |
| 20260504193541 | 30 | 89 | 17.7 | 27.4 | 0.00 | 0.00 | 0.00 | 21 | 1002.5 |
| 20260504193039 | 30 | 89 | 17.7 | 17.7 | 0.00 | 0.00 | 0.00 | 21 | 1002.5 |
| 20260504192537 | 30 | 91 | 11.3 | 17.7 | 0.00 | 0.00 | 0.00 | 22 | 1002.4 |
| 20260504192035 | 29 | 92 | 14.5 | 16.1 | 0.00 | 0.00 | 0.00 | 22 | 1002.7 |
| 20260504191533 | 30 | 72 | 11.3 | 22.5 | 0.00 | 0.00 | 0.00 | 21 | 1002.9 |
| 20260504191029 | 30 | 77 | 6.4 | 14.5 | 0.00 | 0.00 | 0.00 | 23 | 1002.7 |
| 20260504190525 | 30 | 105 | 6.4 | 14.5 | 0.00 | 0.00 | 0.00 | 23 | 1002.9 |
| 20260504190021 | 29 | 87 | 8.0 | 9.7 | 0.00 | 0.00 | 0.00 | 21 | 1002.9 |
| 20260504185518 | 28 | 133 | 6.4 | 11.3 | 0.00 | 0.00 | 0.00 | 22 | 1003.0 |
| 20260504185015 | 29 | 63 | 9.7 | 12.9 | 0.00 | 0.00 | 0.00 | 21 | 1003.3 |
| 20260504184510 | 29 | 76 | 1.6 | 17.7 | 0.00 | 0.00 | 0.00 | 21 | 1003.5 |
| 20260504184006 | 29 | 63 | 9.7 | 20.9 | 0.00 | 0.00 | 0.00 | 19 | 1003.4 |
| 20260504183503 | 29 | 118 | 12.9 | 25.7 | 0.00 | 0.00 | 0.00 | 20 | 1003.4 |
| 20260504183001 | 29 | 78 | 9.7 | 12.9 | 0.00 | 0.00 | 0.00 | 22 | 1003.3 |
| 20260504182458 | 28 | 91 | 6.4 | 11.3 | 0.00 | 0.00 | 0.00 | 22 | 1003.4 |
| 20260504181955 | 30 | 164 | 3.2 | 14.5 | 0.00 | 0.00 | 0.00 | 23 | 1003.4 |
| 20260504181452 | 30 | 96 | 4.8 | 16.1 | 0.00 | 0.00 | 0.00 | 21 | 1003.4 |
| 20260504180951 | 29 | 75 | 3.2 | 14.5 | 0.00 | 0.00 | 0.00 | 22 | 1003.6 |
| 20260504180449 | 29 | 103 | 8.0 | 11.3 | 0.00 | 0.00 | 0.00 | 21 | 1003.6 |
| 20260504175947 | 30 | 59 | 3.2 | 9.7 | 0.00 | 0.00 | 0.00 | 21 | 1003.5 |
| 20260504175444 | 28 | 77 | 8.0 | 12.9 | 0.00 | 0.00 | 0.00 | 21 | 1003.6 |
| 20260504174942 | 27 | 89 | 14.5 | 22.5 | 0.00 | 0.00 | 0.00 | 22 | 1003.5 |
| 20260504174439 | 28 | 83 | 8.0 | 11.3 | 0.00 | 0.00 | 0.00 | 22 | 1003.7 |
| 20260504173936 | 28 | 53 | 8.0 | 12.9 | 0.00 | 0.00 | 0.00 | 22 | 1003.8 |
| 20260504173432 | 28 | 85 | 9.7 | 14.5 | 0.00 | 0.00 | 0.00 | 26 | 1003.5 |
| 20260504172930 | 29 | 82 | 4.8 | 14.5 | 0.00 | 0.00 | 0.00 | 23 | 1003.7 |
| 20260504172426 | 28 | 81 | 8.0 | 12.9 | 0.00 | 0.00 | 0.00 | 26 | 1003.7 |
| 20260504171922 | 27 | 112 | 3.2 | 9.7 | 0.00 | 0.00 | 0.00 | 29 | 1003.9 |
| 20260504171420 | 29 | 73 | 14.5 | 16.1 | 0.00 | 0.00 | 0.00 | 27 | 1003.9 |
| 20260504170917 | 28 | 104 | 1.6 | 3.2 | 0.00 | 0.00 | 0.00 | 28 | 1004.0 |
| 20260504170413 | 27 | 90 | 4.8 | 12.9 | 0.00 | 0.00 | 0.00 | 28 | 1004.0 |
| 20260504160332 | 26 | 126 | 0.0 | 4.8 | 0.00 | 0.00 | 0.00 | 31 | 1003.9 |
| 20260504150756 | 21 | 186 | 1.6 | 3.2 | 0.00 | 0.00 | 0.00 | 40 | 1003.9 |
| 20260504150253 | 21 | 178 | 1.6 | 3.2 | 0.00 | 0.00 | 0.00 | 41 | 1003.9 |
| 20260504141223 | 17 | 239 | 4.8 | 8.0 | 0.00 | 0.00 | 0.00 | 45 | 1004.0 |
| 20260504140720 | 17 | 232 | 4.8 | 9.7 | 0.00 | 0.00 | 0.00 | 46 | 1003.7 |
| 20260504140215 | 17 | 232 | 0.0 | 9.7 | 0.00 | 0.00 | 0.00 | 47 | 1003.8 |
| 20260504130644 | 13 | 238 | 0.0 | 0.0 | 0.00 | 0.00 | 0.00 | 52 | 1003.8 |
| 20260504130140 | 13 | 277 | 0.0 | 3.2 | 0.00 | 0.00 | 0.00 | 52 | 1003.8 |
| 20260504120104 | 13 | 259 | 0.0 | 9.7 | 0.00 | 0.00 | 0.00 | 54 | 1003.5 |